| time (UTC) | temp F | wind direction | speed MPH | gust MPH | rain 1hr in | rain 24hr in | rain mn in | humidity % | barometer mb |
| 20260504050537 | 58 | 227 | 2.0 | 2.0 | 0.00 | 0.00 | 0.00 | 62 | 1001.3 |
| 20260504045537 | 58 | 227 | 1.0 | 3.0 | 0.00 | 0.00 | 0.00 | 62 | 1001.3 |
| 20260504045037 | 58 | 227 | 1.0 | 3.0 | 0.00 | 0.00 | 0.00 | 62 | 1001.2 |
| 20260504044537 | 58 | 227 | 2.0 | 3.0 | 0.00 | 0.00 | 0.00 | 62 | 1001.2 |
| 20260504044037 | 58 | 227 | 2.0 | 3.0 | 0.00 | 0.00 | 0.00 | 62 | 1001.3 |
| 20260504043537 | 58 | 227 | 1.0 | 2.0 | 0.00 | 0.00 | 0.00 | 62 | 1001.3 |
| 20260504043037 | 58 | 227 | 1.0 | 2.0 | 0.00 | 0.00 | 0.00 | 62 | 1001.2 |
| 20260504042537 | 58 | 227 | 1.0 | 1.0 | 0.00 | 0.00 | 0.00 | 63 | 1001.3 |
| 20260504042037 | 58 | 227 | 0.0 | 1.0 | 0.00 | 0.00 | 0.00 | 63 | 1001.3 |
| 20260504041537 | 59 | 227 | 0.0 | 1.0 | 0.00 | 0.00 | 0.00 | 62 | 1001.3 |
| 20260504041037 | 59 | 228 | 1.0 | 2.0 | 0.00 | 0.00 | 0.00 | 62 | 1001.2 |
| 20260504040537 | 59 | 227 | 1.0 | 2.0 | 0.00 | 0.00 | 0.00 | 61 | 1001.2 |
| 20260504040037 | 60 | 227 | 2.0 | 3.0 | 0.00 | 0.00 | 0.00 | 61 | 1001.4 |
| 20260504034537 | 60 | 227 | 2.0 | 4.0 | 0.00 | 0.00 | 0.00 | 60 | 1001.0 |
| 20260504033537 | 61 | 227 | 3.0 | 4.0 | 0.00 | 0.00 | 0.00 | 59 | 1001.2 |
| 20260504033036 | 61 | 227 | 3.0 | 4.0 | 0.00 | 0.00 | 0.00 | 58 | 1001.2 |
| 20260504032536 | 61 | 227 | 3.0 | 5.0 | 0.00 | 0.00 | 0.00 | 58 | 1001.3 |
| 20260504032036 | 62 | 227 | 2.0 | 6.0 | 0.00 | 0.00 | 0.00 | 58 | 1001.3 |
| 20260504031036 | 62 | 227 | 3.0 | 5.0 | 0.00 | 0.00 | 0.00 | 57 | 1001.2 |
| 20260504030536 | 62 | 227 | 4.0 | 5.0 | 0.00 | 0.00 | 0.00 | 57 | 1001.2 |
| 20260504025536 | 62 | 227 | 4.0 | 5.0 | 0.00 | 0.00 | 0.00 | 57 | 1001.0 |
| 20260504025036 | 63 | 227 | 4.0 | 5.0 | 0.00 | 0.00 | 0.00 | 56 | 1001.1 |
| 20260504024535 | 63 | 227 | 4.0 | 5.0 | 0.00 | 0.00 | 0.00 | 56 | 1000.9 |
| 20260504023535 | 63 | 227 | 3.0 | 4.0 | 0.00 | 0.00 | 0.00 | 56 | 1000.9 |
| 20260504023035 | 63 | 227 | 3.0 | 4.0 | 0.00 | 0.00 | 0.00 | 56 | 1000.8 |
| 20260504022536 | 63 | 227 | 3.0 | 5.0 | 0.00 | 0.00 | 0.00 | 56 | 1000.8 |
| 20260504022035 | 63 | 227 | 4.0 | 5.0 | 0.00 | 0.00 | 0.00 | 56 | 1000.7 |
| 20260504021535 | 64 | 227 | 4.0 | 5.0 | 0.00 | 0.00 | 0.00 | 55 | 1000.7 |
| 20260504021035 | 64 | 227 | 3.0 | 5.0 | 0.00 | 0.00 | 0.00 | 55 | 1000.6 |
| 20260504020535 | 64 | 227 | 3.0 | 8.0 | 0.00 | 0.00 | 0.00 | 55 | 1000.5 |
| 20260504015535 | 65 | 227 | 4.0 | 7.0 | 0.00 | 0.00 | 0.00 | 54 | 1000.3 |
| 20260504014534 | 65 | 227 | 4.0 | 5.0 | 0.00 | 0.00 | 0.00 | 54 | 1000.3 |
| 20260504014034 | 65 | 227 | 4.0 | 5.0 | 0.00 | 0.00 | 0.00 | 54 | 1000.2 |
| 20260504013534 | 65 | 227 | 4.0 | 6.0 | 0.00 | 0.00 | 0.00 | 54 | 1000.2 |
| 20260504012535 | 65 | 227 | 4.0 | 6.0 | 0.00 | 0.00 | 0.00 | 53 | 1000.2 |
| 20260504012034 | 65 | 228 | 3.0 | 5.0 | 0.00 | 0.00 | 0.00 | 53 | 1000.1 |
| 20260504011535 | 66 | 227 | 3.0 | 5.0 | 0.00 | 0.00 | 0.00 | 53 | 1000.2 |
| 20260504011034 | 66 | 227 | 4.0 | 7.0 | 0.00 | 0.00 | 0.00 | 53 | 1000.3 |
| 20260504010534 | 66 | 227 | 4.0 | 7.0 | 0.00 | 0.00 | 0.00 | 52 | 1000.3 |
| 20260504010034 | 66 | 227 | 4.0 | 6.0 | 0.00 | 0.00 | 0.00 | 52 | 1000.2 |
| 20260504005534 | 67 | 227 | 3.0 | 7.0 | 0.00 | 0.00 | 0.00 | 52 | 1000.3 |
| 20260504005034 | 67 | 227 | 6.0 | 7.0 | 0.00 | 0.00 | 0.00 | 51 | 1000.3 |
| 20260504004534 | 67 | 227 | 5.0 | 7.0 | 0.00 | 0.00 | 0.00 | 51 | 1000.3 |
| 20260504003534 | 68 | 227 | 6.0 | 8.0 | 0.00 | 0.00 | 0.00 | 50 | 1000.4 |
| 20260504003034 | 68 | 227 | 4.0 | 8.0 | 0.00 | 0.00 | 0.00 | 49 | 1000.5 |
| 20260504002534 | 68 | 228 | 4.0 | 9.0 | 0.00 | 0.00 | 0.00 | 49 | 1000.5 |
| 20260504001534 | 69 | 227 | 5.0 | 9.0 | 0.00 | 0.00 | 0.00 | 47 | 1000.5 |
| 20260504000533 | 69 | 228 | 6.0 | 9.0 | 0.00 | 0.00 | 0.00 | 46 | 1000.3 |
| 20260504000034 | 70 | 228 | 6.0 | 9.0 | 0.00 | 0.00 | 0.00 | 46 | 1000.5 |
| 20260503235033 | 70 | 227 | 7.0 | 10.0 | 0.00 | 0.00 | 0.00 | 46 | 1000.5 |
| 20260503234533 | 70 | 228 | 4.0 | 8.0 | 0.00 | 0.00 | 0.00 | 45 | 1000.5 |
| 20260503233033 | 70 | 227 | 7.0 | 8.0 | 0.00 | 0.00 | 0.00 | 46 | 1000.5 |
| 20260503232533 | 70 | 227 | 6.0 | 8.0 | 0.00 | 0.00 | 0.00 | 46 | 1000.4 |
| 20260503231533 | 70 | 227 | 5.0 | 10.0 | 0.00 | 0.00 | 0.00 | 45 | 1000.4 |
| 20260503231033 | 70 | 227 | 7.0 | 10.0 | 0.00 | 0.00 | 0.00 | 44 | 1000.5 |
| 20260503230533 | 70 | 228 | 7.0 | 10.0 | 0.00 | 0.00 | 0.00 | 44 | 1000.4 |
| 20260503230033 | 70 | 227 | 7.0 | 12.0 | 0.00 | 0.00 | 0.00 | 44 | 1000.5 |
| 20260503225032 | 70 | 227 | 6.0 | 8.0 | 0.00 | 0.00 | 0.00 | 46 | 1000.5 |
| 20260503224033 | 70 | 227 | 4.0 | 11.0 | 0.00 | 0.00 | 0.00 | 45 | 1000.6 |
| 20260503222032 | 70 | 227 | 6.0 | 13.0 | 0.00 | 0.00 | 0.00 | 45 | 1000.8 |
| 20260503221532 | 70 | 228 | 8.0 | 13.0 | 0.00 | 0.00 | 0.00 | 45 | 1000.8 |
| 20260503220532 | 70 | 228 | 8.0 | 13.0 | 0.00 | 0.00 | 0.00 | 44 | 1000.8 |
| 20260503220032 | 70 | 229 | 12.0 | 14.0 | 0.00 | 0.00 | 0.00 | 44 | 1000.8 |
| 20260503215031 | 70 | 229 | 9.0 | 14.0 | 0.00 | 0.00 | 0.00 | 45 | 1000.7 |
| 20260503214532 | 70 | 229 | 4.0 | 13.0 | 0.00 | 0.00 | 0.00 | 48 | 1000.9 |
| 20260503214032 | 70 | 229 | 8.0 | 14.0 | 0.00 | 0.00 | 0.00 | 45 | 1000.8 |
| 20260503213531 | 69 | 229 | 6.0 | 14.0 | 0.00 | 0.00 | 0.00 | 47 | 1000.9 |
| 20260503213031 | 69 | 229 | 8.0 | 11.0 | 0.00 | 0.00 | 0.00 | 48 | 1000.9 |
| 20260503212531 | 69 | 229 | 7.0 | 16.0 | 0.00 | 0.00 | 0.00 | 47 | 1001.0 |
| 20260503211531 | 69 | 229 | 7.0 | 14.0 | 0.00 | 0.00 | 0.00 | 46 | 1001.1 |
| 20260503211031 | 69 | 229 | 6.0 | 14.0 | 0.00 | 0.00 | 0.00 | 47 | 1001.1 |
| 20260503210531 | 68 | 229 | 9.0 | 16.0 | 0.00 | 0.00 | 0.00 | 48 | 1001.2 |
| 20260503210031 | 68 | 229 | 11.0 | 16.0 | 0.00 | 0.00 | 0.00 | 46 | 1001.2 |
| 20260503205031 | 68 | 229 | 11.0 | 13.0 | 0.00 | 0.00 | 0.00 | 46 | 1001.3 |
| 20260503204531 | 68 | 229 | 8.0 | 13.0 | 0.00 | 0.00 | 0.00 | 46 | 1001.4 |
| 20260503204030 | 68 | 229 | 11.0 | 13.0 | 0.00 | 0.00 | 0.00 | 47 | 1001.5 |
| 20260503203531 | 68 | 229 | 6.0 | 17.0 | 0.00 | 0.00 | 0.00 | 48 | 1001.6 |
| 20260503203030 | 68 | 229 | 10.0 | 17.0 | 0.00 | 0.00 | 0.00 | 46 | 1001.8 |
| 20260503202030 | 68 | 230 | 11.0 | 15.0 | 0.00 | 0.00 | 0.00 | 48 | 1001.9 |
| 20260503201530 | 67 | 229 | 11.0 | 15.0 | 0.00 | 0.00 | 0.00 | 47 | 1001.9 |
| 20260503200030 | 67 | 229 | 6.0 | 17.0 | 0.00 | 0.00 | 0.00 | 48 | 1002.2 |
| 20260503195530 | 67 | 229 | 12.0 | 17.0 | 0.00 | 0.00 | 0.00 | 46 | 1002.2 |
| 20260503194530 | 67 | 229 | 14.0 | 16.0 | 0.00 | 0.00 | 0.00 | 47 | 1002.3 |
| 20260503194030 | 67 | 229 | 10.0 | 17.0 | 0.00 | 0.00 | 0.00 | 48 | 1002.4 |
| 20260503193530 | 67 | 229 | 10.0 | 17.0 | 0.00 | 0.00 | 0.00 | 47 | 1002.4 |
| 20260503193030 | 67 | 229 | 7.0 | 19.0 | 0.00 | 0.00 | 0.00 | 45 | 1002.5 |
| 20260503192530 | 66 | 229 | 8.0 | 19.0 | 0.00 | 0.00 | 0.00 | 49 | 1002.4 |
| 20260503192030 | 66 | 229 | 10.0 | 18.0 | 0.00 | 0.00 | 0.00 | 48 | 1002.5 |
| 20260503191529 | 66 | 229 | 14.0 | 18.0 | 0.00 | 0.00 | 0.00 | 46 | 1002.6 |
| 20260503190030 | 66 | 229 | 13.0 | 20.0 | 0.00 | 0.00 | 0.00 | 48 | 1003.0 |
| 20260503185529 | 66 | 229 | 10.0 | 20.0 | 0.00 | 0.00 | 0.00 | 49 | 1003.1 |
| 20260503185029 | 65 | 231 | 10.0 | 20.0 | 0.00 | 0.00 | 0.00 | 51 | 1003.2 |
| 20260503184529 | 64 | 231 | 11.0 | 20.0 | 0.00 | 0.00 | 0.00 | 49 | 1003.2 |
| 20260503184029 | 65 | 230 | 12.0 | 17.0 | 0.00 | 0.00 | 0.00 | 49 | 1003.2 |
| 20260503183529 | 65 | 231 | 12.0 | 17.0 | 0.00 | 0.00 | 0.00 | 52 | 1003.4 |
| 20260503183029 | 64 | 231 | 11.0 | 18.0 | 0.00 | 0.00 | 0.00 | 51 | 1003.5 |
| 20260503182029 | 63 | 232 | 10.0 | 22.0 | 0.00 | 0.00 | 0.00 | 48 | 1003.7 |
| 20260503181529 | 63 | 232 | 9.0 | 22.0 | 0.00 | 0.00 | 0.00 | 50 | 1003.9 |
| 20260503181029 | 63 | 232 | 14.0 | 20.0 | 0.00 | 0.00 | 0.00 | 47 | 1003.8 |
| 20260503180529 | 63 | 232 | 14.0 | 21.0 | 0.00 | 0.00 | 0.00 | 51 | 1004.1 |
| 20260503175528 | 63 | 232 | 14.0 | 18.0 | 0.00 | 0.00 | 0.00 | 49 | 1004.1 |
| 20260503175028 | 63 | 231 | 8.0 | 18.0 | 0.00 | 0.00 | 0.00 | 48 | 1004.1 |
| 20260503174528 | 63 | 233 | 16.0 | 18.0 | 0.00 | 0.00 | 0.00 | 48 | 1004.2 |
| 20260503173528 | 62 | 232 | 9.0 | 18.0 | 0.00 | 0.00 | 0.00 | 51 | 1004.3 |
| 20260503173028 | 62 | 232 | 13.0 | 17.0 | 0.00 | 0.00 | 0.00 | 51 | 1004.2 |
| 20260503172528 | 62 | 233 | 7.0 | 22.0 | 0.00 | 0.00 | 0.00 | 51 | 1004.3 |
| 20260503172028 | 62 | 233 | 10.0 | 22.0 | 0.00 | 0.00 | 0.00 | 52 | 1004.4 |
| 20260503171528 | 62 | 232 | 6.0 | 22.0 | 0.00 | 0.00 | 0.00 | 50 | 1004.6 |
| 20260503171028 | 62 | 231 | 6.0 | 22.0 | 0.00 | 0.00 | 0.00 | 53 | 1004.6 |
| 20260503170528 | 61 | 231 | 5.0 | 16.0 | 0.00 | 0.00 | 0.00 | 54 | 1004.6 |
| 20260503150526 | 48 | 226 | 2.0 | 9.0 | 0.00 | 0.00 | 0.00 | 75 | 1006.9 |
| 20260503131024 | 46 | 226 | 2.0 | 5.0 | 0.00 | 0.00 | 0.00 | 80 | 1008.7 |
| 20260503130524 | 46 | 226 | 3.0 | 4.0 | 0.00 | 0.00 | 0.00 | 79 | 1008.7 |
| 20260503110523 | 46 | 228 | 3.0 | 5.0 | 0.00 | 0.00 | 0.00 | 67 | 1008.1 |
| 20260503081521 | 45 | 228 | 3.0 | 5.0 | 0.00 | 0.00 | 0.00 | 63 | 1009.2 |
| 20260503081021 | 45 | 228 | 3.0 | 6.0 | 0.00 | 0.00 | 0.00 | 63 | 1009.2 |
| 20260503080521 | 45 | 228 | 3.0 | 6.0 | 0.00 | 0.00 | 0.00 | 62 | 1009.2 |